When you browse on this site, cookies collect data to enhance your experience and personalize the content and advertising you see.
Visit our Privacy Policy to learn more. By continuing to use the site, you agree to this use of cookies and data.
  • In United Kingdom
  • List of Countries
  • For 7 days
  • Water Temperature
  • Weather Map
  • Weather Widgets
  • user-avatar
    Login

    Hourly Weather Ahtopol

    Today, 14 November, Thursday

    Time Temperature Precipitation Wind Pressure Humidity
    00:00 +19°C° 0 mm 1 mps 757 mmHg 68%
    01:00 +19°C° 0 mm 1 mps 756 mmHg 69%
    02:00 +17°C° 0 mm 2 mps 756 mmHg 71%
    03:00 +17°C° 0 mm 2 mps 756 mmHg 73%
    04:00 +17°C° 0 mm 2 mps 756 mmHg 75%
    05:00 +17°C° 0 mm 2 mps 755 mmHg 77%
    06:00 +17°C° 0 mm 2 mps 756 mmHg 80%
    07:00 +17°C° 0 mm 2 mps 756 mmHg 82%
    08:00 +17°C° 0 mm 2 mps 756 mmHg 83%
    09:00 +17°C° 0 mm 2 mps 756 mmHg 82%
    10:00 +18°C° 0 mm 2 mps 756 mmHg 80%
    11:00 +19°C° 0 mm 3 mps 755 mmHg 78%
    12:00 +19°C° 0 mm 2 mps 755 mmHg 73%
    13:00 +20°C° 0 mm 2 mps 755 mmHg 68%
    14:00 +20°C° 0 mm 2 mps 755 mmHg 64%
    15:00 +20°C° 0 mm 2 mps 755 mmHg 68%
    16:00 +19°C° 0 mm 3 mps 755 mmHg 72%
    17:00 +18°C° 0 mm 3 mps 755 mmHg 76%
    18:00 +18°C° 0.4 mm 3 mps 755 mmHg 77%
    19:00 +17°C° 0.4 mm 3 mps 756 mmHg 78%
    20:00 +17°C° 0.4 mm 3 mps 756 mmHg 79%
    21:00 +17°C° 0 mm 3 mps 756 mmHg 80%
    22:00 +15°C° 0 mm 4 mps 756 mmHg 81%
    23:00 +15°C° 0 mm 4 mps 756 mmHg 82%

    Tomorrow, 15 November, Friday

    Time Temperature Precipitation Wind Pressure Humidity
    00:00 +15°C° 0 mm 4 mps 757 mmHg 84%
    01:00 +14°C° 0 mm 3 mps 757 mmHg 86%
    02:00 +14°C° 0 mm 3 mps 757 mmHg 89%
    03:00 +14°C° 0 mm 2 mps 757 mmHg 90%
    04:00 +14°C° 0 mm 2 mps 758 mmHg 91%
    05:00 +14°C° 0 mm 1 mps 758 mmHg 92%
    06:00 +14°C° 0 mm 1 mps 758 mmHg 92%
    07:00 +14°C° 0 mm 1 mps 759 mmHg 92%
    08:00 +14°C° 0 mm 1 mps 759 mmHg 91%
    09:00 +16°C° 0 mm 1 mps 760 mmHg 83%
    10:00 +18°C° 0 mm 1 mps 760 mmHg 75%
    11:00 +19°C° 0 mm 2 mps 760 mmHg 67%
    12:00 +20°C° 0 mm 2 mps 760 mmHg 63%
    13:00 +21°C° 0 mm 2 mps 760 mmHg 58%
    14:00 +21°C° 0 mm 2 mps 760 mmHg 54%
    15:00 +20°C° 0 mm 2 mps 761 mmHg 60%
    16:00 +19°C° 0 mm 2 mps 761 mmHg 65%
    17:00 +18°C° 0 mm 2 mps 761 mmHg 70%
    18:00 +18°C° 0 mm 1 mps 761 mmHg 73%
    19:00 +18°C° 0 mm 1 mps 762 mmHg 76%
    20:00 +16°C° 0 mm 1 mps 762 mmHg 79%
    21:00 +16°C° 0 mm 1 mps 762 mmHg 80%
    22:00 +16°C° 0 mm 1 mps 763 mmHg 80%
    23:00 +15°C° 0 mm 1 mps 763 mmHg 81%

    Day after tomorrow, 16 November, Saturday

    Time Temperature Precipitation Wind Pressure Humidity
    00:00 +15°C° 0 mm 1 mps 763 mmHg 81%
    01:00 +15°C° 0 mm 1 mps 763 mmHg 82%
    02:00 +14°C° 0 mm 0 mps 763 mmHg 82%
    03:00 +13°C° 0 mm 0 mps 763 mmHg 82%
    04:00 +13°C° 0 mm 0 mps 763 mmHg 82%
    05:00 +13°C° 0 mm 0 mps 763 mmHg 83%
    06:00 +13°C° 0 mm 0 mps 764 mmHg 81%
    07:00 +13°C° 0 mm 0 mps 764 mmHg 80%
    08:00 +13°C° 0 mm 0 mps 764 mmHg 78%
    09:00 +15°C° 0 mm 0 mps 764 mmHg 71%
    10:00 +17°C° 0 mm 0 mps 764 mmHg 64%
    11:00 +21°C° 0 mm 1 mps 764 mmHg 57%
    12:00 +21°C° 0 mm 1 mps 764 mmHg 56%
    13:00 +21°C° 0 mm 2 mps 764 mmHg 55%
    14:00 +21°C° 0 mm 3 mps 764 mmHg 54%
    15:00 +20°C° 0 mm 3 mps 764 mmHg 64%
    16:00 +18°C° 0 mm 3 mps 764 mmHg 73%
    17:00 +17°C° 0 mm 3 mps 763 mmHg 82%
    18:00 +16°C° 0 mm 3 mps 764 mmHg 86%
    19:00 +16°C° 0 mm 2 mps 764 mmHg 89%
    20:00 +15°C° 0 mm 2 mps 764 mmHg 92%
    21:00 +15°C° 0 mm 2 mps 764 mmHg 93%
    22:00 +15°C° 0 mm 2 mps 764 mmHg 93%
    23:00 +15°C° 0 mm 2 mps 764 mmHg 94%

    17 November, Sunday

    Time Temperature Precipitation Wind Pressure Humidity
    00:00 +15°C° 0 mm 2 mps 764 mmHg 94%
    01:00 +14°C° 0 mm 2 mps 764 mmHg 94%
    02:00 +14°C° 0 mm 2 mps 763 mmHg 94%
    03:00 +14°C° 0 mm 2 mps 763 mmHg 94%
    04:00 +14°C° 0 mm 2 mps 763 mmHg 94%
    05:00 +14°C° 0 mm 2 mps 763 mmHg 94%
    06:00 +14°C° 0 mm 2 mps 763 mmHg 94%
    07:00 +14°C° 0 mm 3 mps 763 mmHg 94%
    08:00 +14°C° 0 mm 3 mps 763 mmHg 94%
    09:00 +16°C° 0 mm 3 mps 763 mmHg 88%
    10:00 +17°C° 0 mm 4 mps 763 mmHg 81%
    11:00 +18°C° 0 mm 4 mps 763 mmHg 75%
    12:00 +18°C° 0 mm 4 mps 763 mmHg 73%
    13:00 +19°C° 0 mm 4 mps 762 mmHg 71%
    14:00 +19°C° 0 mm 4 mps 762 mmHg 69%
    15:00 +18°C° 0 mm 4 mps 762 mmHg 75%
    16:00 +17°C° 0 mm 3 mps 761 mmHg 81%
    17:00 +16°C° 0 mm 3 mps 761 mmHg 87%
    18:00 +15°C° 0 mm 2 mps 761 mmHg 89%
    19:00 +15°C° 0 mm 2 mps 761 mmHg 92%
    20:00 +14°C° 0 mm 2 mps 762 mmHg 95%
    21:00 +14°C° 0 mm 2 mps 761 mmHg 95%
    22:00 +14°C° 0 mm 2 mps 761 mmHg 95%
    23:00 +14°C° 0 mm 1 mps 761 mmHg 96%

    18 November, Monday

    Time Temperature Precipitation Wind Pressure Humidity
    00:00 +14°C° 0 mm 1 mps 761 mmHg 95%
    01:00 +14°C° 0 mm 1 mps 761 mmHg 94%
    02:00 +14°C° 0 mm 1 mps 760 mmHg 93%
    03:00 +14°C° 0 mm 1 mps 760 mmHg 93%
    04:00 +14°C° 0 mm 1 mps 760 mmHg 93%
    05:00 +14°C° 0 mm 1 mps 760 mmHg 93%
    06:00 +14°C° 0 mm 1 mps 760 mmHg 92%
    07:00 +14°C° 0 mm 1 mps 760 mmHg 91%
    08:00 +14°C° 0 mm 1 mps 760 mmHg 89%
    09:00 +16°C° 0 mm 2 mps 761 mmHg 80%
    10:00 +18°C° 0 mm 2 mps 761 mmHg 70%
    11:00 +20°C° 0 mm 2 mps 761 mmHg 61%
    12:00 +20°C° 0 mm 3 mps 761 mmHg 58%
    13:00 +21°C° 0 mm 4 mps 761 mmHg 56%
    14:00 +22°C° 0 mm 4 mps 760 mmHg 53%
    15:00 +21°C° 0 mm 4 mps 761 mmHg 58%
    16:00 +19°C° 0 mm 3 mps 761 mmHg 63%
    17:00 +18°C° 0 mm 2 mps 761 mmHg 67%
    18:00 +18°C° 0 mm 2 mps 761 mmHg 71%
    19:00 +17°C° 0 mm 2 mps 762 mmHg 75%
    20:00 +17°C° 0 mm 2 mps 762 mmHg 78%
    21:00 +16°C° 0 mm 2 mps 762 mmHg 81%
    22:00 +16°C° 0 mm 2 mps 762 mmHg 84%
    23:00 +16°C° 0 mm 1 mps 762 mmHg 87%

    19 November, Tuesday

    Time Temperature Precipitation Wind Pressure Humidity
    00:00 +15°C° 0 mm 1 mps 762 mmHg 88%
    01:00 +15°C° 0 mm 1 mps 762 mmHg 89%
    02:00 +15°C° 0 mm 1 mps 762 mmHg 90%
    03:00 +15°C° 0 mm 1 mps 762 mmHg 90%
    04:00 +15°C° 0 mm 1 mps 763 mmHg 91%
    05:00 +15°C° 0 mm 1 mps 763 mmHg 91%
    06:00 +15°C° 0 mm 1 mps 763 mmHg 90%
    07:00 +15°C° 0 mm 1 mps 763 mmHg 89%
    08:00 +15°C° 0 mm 1 mps 763 mmHg 88%
    09:00 +17°C° 0 mm 2 mps 763 mmHg 80%
    10:00 +19°C° 0 mm 2 mps 763 mmHg 72%
    11:00 +20°C° 0 mm 2 mps 763 mmHg 64%
    12:00 +21°C° 0 mm 3 mps 763 mmHg 60%
    13:00 +22°C° 0 mm 3 mps 762 mmHg 56%
    14:00 +22°C° 0 mm 3 mps 762 mmHg 53%
    15:00 +21°C° 0 mm 3 mps 762 mmHg 58%
    16:00 +20°C° 0 mm 2 mps 762 mmHg 63%
    17:00 +19°C° 0 mm 2 mps 762 mmHg 68%
    18:00 +18°C° 0 mm 2 mps 762 mmHg 70%
    19:00 +18°C° 0 mm 2 mps 762 mmHg 72%
    20:00 +17°C° 0 mm 2 mps 762 mmHg 75%
    21:00 +18°C° 0 mm 1 mps 762 mmHg 76%
    22:00 +16°C° 0 mm 1 mps 762 mmHg 77%
    23:00 +16°C° 0 mm 1 mps 762 mmHg 78%
    Show more